Date,Time,Wetness (Wet Dry or Ice),Wind Speed (m/s),Temperature (C),Humidity (%),Pressure (mb),Radiation (W/m^2)
2020-01-26,06:10:00,DRY,2.00,3.10,5.7,773.00,0.8
2020-01-26,06:15:00,DRY,2.20,3.55,6.0,773.00,1.9
2020-01-26,06:20:00,DRY,2.33,3.27,6.7,773.00,1.2
2020-01-26,06:25:00,DRY,2.45,3.30,6.5,773.50,1.2
2020-01-26,06:30:00,DRY,1.60,3.17,6.3,773.67,0.5
2020-01-26,06:35:00,DRY,1.15,3.35,6.0,774.00,1.4
2020-01-26,06:40:00,DRY,1.27,3.90,6.0,774.00,1.7
2020-01-26,06:45:00,DRY,2.15,4.90,6.0,774.00,0.8
2020-01-26,06:50:00,DRY,1.93,4.73,6.0,774.00,1.1
2020-01-26,06:55:00,DRY,3.75,5.05,5.5,774.00,1.0
2020-01-26,07:00:00,DRY,3.00,4.53,6.7,774.00,1.8
2020-01-26,07:05:00,DRY,2.20,4.55,6.0,774.00,0.7
2020-01-26,07:10:00,DRY,2.87,4.33,6.0,774.00,1.3
2020-01-26,07:15:00,DRY,2.85,4.05,7.0,774.00,0.6
2020-01-26,07:20:00,DRY,2.13,4.73,5.7,774.00,1.6
2020-01-26,07:25:00,DRY,1.90,4.75,5.5,774.00,1.2
2020-01-26,07:30:00,DRY,3.57,4.27,6.0,774.00,1.0
2020-01-26,07:35:00,DRY,3.25,4.30,6.0,774.00,0.8
2020-01-26,07:40:00,DRY,3.27,4.27,6.0,774.00,1.4
2020-01-26,07:45:00,DRY,3.45,4.05,6.5,775.00,1.2
2020-01-26,07:50:00,DRY,2.97,4.03,6.7,774.67,2.2
2020-01-26,07:55:00,DRY,2.40,4.30,5.5,775.00,3.5
2020-01-26,08:00:00,DRY,1.80,3.73,6.0,774.67,5.6
2020-01-26,08:05:00,DRY,2.15,3.35,6.5,774.00,8.5
2020-01-26,08:10:00,DRY,2.23,3.17,6.0,774.00,11.2
2020-01-26,08:15:00,DRY,2.35,3.20,7.0,774.00,13.3
2020-01-26,08:20:00,DRY,2.27,3.17,6.3,774.00,15.5
2020-01-26,08:25:00,DRY,2.95,3.50,7.0,774.00,18.1
2020-01-26,08:30:00,DRY,2.43,3.27,7.0,774.00,20.2
2020-01-26,08:35:00,DRY,2.30,3.20,7.0,774.00,22.7
2020-01-26,08:40:00,DRY,2.67,3.47,7.0,775.00,93.1
2020-01-26,08:45:00,DRY,2.65,3.65,7.0,775.00,159.2
2020-01-26,08:50:00,DRY,2.37,3.63,6.0,775.00,178.6
2020-01-26,08:55:00,DRY,2.15,3.65,6.0,775.00,199.2
2020-01-26,09:00:00,DRY,1.67,3.90,6.0,775.00,218.9
2020-01-26,09:05:00,DRY,1.30,3.90,6.0,776.00,239.4
2020-01-26,09:10:00,DRY,1.33,4.13,5.7,776.67,259.3
2020-01-26,09:15:00,DRY,1.05,4.40,5.5,777.00,278.4
2020-01-26,09:20:00,DRY,1.30,4.47,5.7,777.33,299.0
2020-01-26,09:25:00,DRY,1.50,4.45,5.5,777.00,318.4
2020-01-26,09:30:00,DRY,1.67,4.60,5.7,776.67,338.3
2020-01-26,09:35:00,DRY,1.95,4.50,5.5,776.00,355.9
2020-01-26,09:40:00,DRY,1.80,4.50,6.0,776.00,375.6
2020-01-26,09:45:00,DRY,1.55,4.60,6.0,776.00,394.6
2020-01-26,09:50:00,DRY,1.87,4.43,6.7,776.00,412.5
2020-01-26,09:55:00,DRY,2.10,4.35,7.0,776.00,429.8
2020-01-26,10:00:00,DRY,2.20,4.47,6.7,776.00,447.3
2020-01-26,10:05:00,DRY,2.30,4.55,6.5,776.00,464.8
2020-01-26,10:10:00,DRY,1.83,4.63,7.0,776.00,482.0
2020-01-26,10:15:00,DRY,1.70,4.95,7.0,776.00,499.2
2020-01-26,10:20:00,DRY,1.53,5.33,7.0,776.00,516.4
2020-01-26,10:25:00,DRY,1.20,5.35,7.0,776.00,533.1
2020-01-26,10:30:00,DRY,1.47,5.30,6.7,776.00,547.4
2020-01-26,10:35:00,DRY,1.70,5.30,8.0,776.00,564.8
2020-01-26,10:40:00,DRY,1.70,5.40,8.0,776.00,579.6
2020-01-26,10:45:00,DRY,1.85,5.45,7.0,776.00,593.1
2020-01-26,10:50:00,DRY,1.53,5.43,7.0,776.00,608.0
2020-01-26,10:55:00,DRY,1.55,5.60,7.5,776.00,620.6
2020-01-26,11:00:00,DRY,2.83,5.57,6.7,776.00,634.8
2020-01-26,11:05:00,DRY,3.15,6.35,7.0,776.00,647.7
2020-01-26,11:10:00,DRY,3.13,6.43,6.7,776.00,660.8
2020-01-26,11:15:00,DRY,2.80,6.35,6.5,776.00,672.8
2020-01-26,11:20:00,DRY,2.30,6.20,8.0,776.00,684.9
2020-01-26,11:25:00,DRY,2.00,5.85,8.5,776.50,697.8
2020-01-26,11:30:00,DRY,1.73,6.13,6.7,776.00,708.4
2020-01-26,11:35:00,DRY,2.00,6.40,7.5,776.00,717.2
2020-01-26,11:40:00,DRY,1.93,6.40,7.3,776.00,729.3
2020-01-26,11:45:00,DRY,1.95,6.55,7.5,776.00,738.8
2020-01-26,11:50:00,DRY,2.47,6.80,7.3,776.00,748.0
2020-01-26,11:55:00,DRY,2.10,6.75,7.5,776.00,757.3
2020-01-26,12:00:00,DRY,2.30,6.57,8.3,776.00,765.1
2020-01-26,12:05:00,DRY,2.05,6.60,13.0,776.00,772.7
2020-01-26,12:10:00,DRY,1.93,6.43,14.7,776.00,779.6
2020-01-26,12:15:00,DRY,2.30,6.10,12.0,776.00,787.0
2020-01-26,12:20:00,DRY,2.07,6.47,11.0,776.00,792.3
2020-01-26,12:25:00,DRY,2.75,6.65,10.5,776.00,798.3
2020-01-26,12:30:00,DRY,2.17,6.53,11.3,776.00,803.3
2020-01-26,12:35:00,DRY,1.80,6.50,10.5,776.00,808.8
2020-01-26,12:40:00,DRY,2.27,6.67,11.3,776.00,813.4
2020-01-26,12:45:00,DRY,2.10,6.85,13.5,776.00,818.4
2020-01-26,12:50:00,DRY,1.87,6.67,14.7,776.00,820.7
2020-01-26,12:55:00,DRY,1.75,6.45,15.0,776.00,822.5
2020-01-26,13:00:00,DRY,1.47,6.67,14.0,776.00,826.0
2020-01-26,13:05:00,DRY,1.50,6.95,10.0,776.00,828.0
2020-01-26,13:10:00,DRY,2.03,7.33,7.7,776.00,828.1
2020-01-26,13:15:00,DRY,2.15,7.45,9.5,776.00,829.6
2020-01-26,13:20:00,DRY,1.87,7.50,9.3,776.00,829.5
2020-01-26,13:25:00,DRY,1.85,7.45,8.5,776.00,829.6
2020-01-26,13:30:00,DRY,1.10,7.30,8.0,776.00,830.9
2020-01-26,13:35:00,DRY,3.30,7.40,8.0,776.00,827.4
2020-01-26,13:40:00,DRY,2.43,7.43,10.3,776.00,826.0
2020-01-26,13:45:00,DRY,2.65,7.55,11.0,776.00,822.7
2020-01-26,13:50:00,DRY,2.60,7.03,11.0,775.00,820.6
2020-01-26,13:55:00,DRY,2.40,6.85,14.0,776.00,818.1
2020-01-26,14:00:00,DRY,1.90,7.10,13.3,775.67,812.0
2020-01-26,14:05:00,DRY,1.40,7.45,8.0,775.00,811.2
2020-01-26,14:10:00,DRY,1.80,7.77,8.0,775.33,806.9
2020-01-26,14:15:00,DRY,2.40,7.70,12.0,775.00,801.3
2020-01-26,14:20:00,DRY,2.07,7.20,13.3,775.00,795.0
2020-01-26,14:25:00,DRY,1.95,6.80,12.5,775.00,788.0
2020-01-26,14:30:00,DRY,2.20,6.87,13.3,775.00,781.2
2020-01-26,14:35:00,DRY,2.90,7.00,9.5,775.00,775.0
2020-01-26,14:40:00,DRY,2.40,7.10,10.0,775.00,765.6
2020-01-26,14:45:00,DRY,2.60,7.10,12.0,775.00,758.7
2020-01-26,14:50:00,DRY,2.87,7.10,9.3,775.00,750.8
2020-01-26,14:55:00,DRY,2.40,6.80,8.0,775.00,743.2
2020-01-26,15:00:00,DRY,1.93,6.73,11.7,775.00,732.8
2020-01-26,15:05:00,DRY,2.45,6.70,16.5,775.00,720.5
2020-01-26,15:10:00,DRY,2.70,6.40,13.0,775.00,711.0
2020-01-26,15:15:00,DRY,2.55,6.35,13.0,775.00,702.3
2020-01-26,15:20:00,DRY,2.40,6.43,14.0,775.00,689.4
2020-01-26,15:25:00,DRY,1.95,6.45,11.5,775.00,678.1
2020-01-26,15:30:00,DRY,2.37,6.33,11.3,775.00,664.0
2020-01-26,15:35:00,DRY,1.90,6.15,9.0,775.00,651.1
2020-01-26,15:40:00,DRY,2.80,6.27,10.3,775.00,639.2
2020-01-26,15:45:00,DRY,2.90,6.05,10.0,775.00,626.0
2020-01-26,15:50:00,DRY,2.30,6.07,10.3,775.00,610.1
2020-01-26,15:55:00,DRY,2.70,6.05,11.5,775.00,595.5
2020-01-26,16:00:00,DRY,2.93,6.07,12.0,775.00,580.4
2020-01-26,16:05:00,DRY,1.95,5.95,11.5,775.00,564.9
2020-01-26,16:10:00,DRY,2.67,6.10,9.0,775.00,549.7
2020-01-26,16:15:00,DRY,3.80,6.05,8.0,775.00,532.9
2020-01-26,16:20:00,DRY,2.77,6.00,8.7,775.00,516.8
2020-01-26,16:25:00,DRY,3.65,6.05,8.5,775.00,500.4
2020-01-26,16:30:00,DRY,2.97,6.00,8.7,775.00,483.4
2020-01-26,16:35:00,DRY,2.70,5.90,9.0,775.00,466.5
2020-01-26,16:40:00,DRY,3.67,5.97,9.0,775.00,448.5
2020-01-26,16:45:00,DRY,3.95,6.10,8.5,775.00,430.4
2020-01-26,16:50:00,DRY,3.63,6.10,8.7,775.00,411.6
2020-01-26,16:55:00,DRY,3.20,6.15,8.0,775.00,393.2
2020-01-26,17:00:00,DRY,4.00,6.27,8.7,775.00,374.5
2020-01-26,17:05:00,DRY,1.80,6.30,8.0,775.00,355.6
2020-01-26,17:10:00,DRY,2.63,6.07,8.7,775.00,336.7
2020-01-26,17:15:00,DRY,3.55,6.20,7.0,775.00,316.4
2020-01-26,17:20:00,DRY,3.43,6.13,7.3,775.00,297.6
2020-01-26,17:25:00,DRY,2.05,5.90,7.5,775.00,277.9
2020-01-26,17:30:00,DRY,2.50,5.87,7.7,775.00,258.2
2020-01-26,17:35:00,DRY,3.50,6.05,7.0,775.00,239.2
2020-01-26,17:40:00,DRY,3.67,6.10,6.3,775.00,219.0
2020-01-26,17:45:00,DRY,4.10,6.05,6.0,775.00,202.1
2020-01-26,17:50:00,DRY,4.00,5.97,6.3,775.00,182.2
2020-01-26,17:55:00,DRY,3.65,5.80,7.0,775.00,164.6
2020-01-26,18:00:00,DRY,3.10,5.53,6.7,775.00,146.7
2020-01-26,18:05:00,DRY,4.65,5.60,6.5,775.00,124.8
2020-01-26,18:10:00,DRY,3.73,5.73,6.0,775.00,100.3
2020-01-26,18:15:00,DRY,4.05,5.60,6.5,775.00,77.3
2020-01-26,18:20:00,DRY,4.97,5.53,6.7,775.00,54.9
2020-01-26,18:25:00,DRY,4.40,5.40,7.0,775.00,31.3
2020-01-26,18:30:00,DRY,5.10,5.50,6.3,775.00,22.7
2020-01-26,18:35:00,DRY,4.95,5.70,6.5,775.00,16.9
2020-01-26,18:40:00,DRY,5.10,6.00,6.0,775.00,12.6
2020-01-26,18:45:00,DRY,5.40,5.90,6.5,775.00,8.8
2020-01-26,18:50:00,DRY,4.80,5.83,6.7,775.00,4.7
2020-01-26,18:55:00,DRY,4.85,5.90,6.5,775.00,2.6
2020-01-26,19:00:00,DRY,5.63,5.80,6.3,775.00,1.4
2020-01-26,19:05:00,DRY,5.30,5.75,6.5,775.00,1.2
2020-01-26,19:10:00,DRY,5.63,5.80,6.0,775.00,1.2
2020-01-26,19:15:00,DRY,4.95,5.85,7.0,775.00,1.2
2020-01-26,19:20:00,DRY,5.60,5.87,6.7,775.33,1.2
2020-01-26,19:25:00,DRY,5.75,5.85,6.5,775.00,1.1
2020-01-26,19:30:00,DRY,3.40,5.67,6.3,775.33,1.2
2020-01-26,19:35:00,DRY,5.50,5.75,6.5,775.50,1.0
2020-01-26,19:40:00,DRY,4.37,5.80,6.3,776.00,1.5
2020-01-26,19:45:00,DRY,4.70,5.70,6.0,776.00,0.8
2020-01-26,19:50:00,DRY,3.93,5.87,6.0,776.00,1.2
2020-01-26,19:55:00,DRY,3.45,6.00,8.0,776.00,1.4
2020-01-26,20:00:00,DRY,4.03,6.00,8.0,776.00,1.4
2020-01-26,20:05:00,DRY,3.65,5.85,8.0,776.00,1.4
2020-01-26,20:10:00,DRY,3.90,5.97,9.3,776.00,2.4
2020-01-26,20:15:00,DRY,4.05,6.00,10.5,776.00,1.6
2020-01-26,20:20:00,DRY,4.47,6.13,9.3,776.00,2.2
2020-01-26,20:25:00,DRY,3.90,6.35,8.0,776.00,1.2
2020-01-26,20:30:00,DRY,4.00,6.47,7.3,776.00,1.4
2020-01-26,20:35:00,DRY,3.75,6.60,8.0,776.00,1.4
2020-01-26,20:40:00,DRY,4.10,6.60,8.0,776.00,1.3
2020-01-26,20:45:00,DRY,4.20,6.55,7.5,776.00,1.5
2020-01-26,20:50:00,DRY,4.40,6.60,7.7,776.00,1.1
2020-01-26,20:55:00,DRY,3.60,6.70,8.0,776.00,1.2
2020-01-26,21:00:00,DRY,3.23,6.73,8.0,776.00,1.5
2020-01-26,21:05:00,DRY,2.65,6.90,8.0,776.00,1.1
2020-01-26,21:10:00,DRY,2.87,6.97,8.0,776.00,1.6
2020-01-26,21:15:00,DRY,2.75,6.90,8.5,776.00,1.0
2020-01-26,21:20:00,DRY,3.37,6.83,8.3,776.00,1.3
2020-01-26,21:25:00,DRY,2.40,7.15,8.0,776.00,0.9
2020-01-26,21:30:00,DRY,2.83,7.23,8.0,776.00,1.9
2020-01-26,21:35:00,DRY,2.70,7.40,8.0,776.00,1.5
2020-01-26,21:40:00,DRY,2.50,7.77,8.0,776.00,1.1
2020-01-26,21:45:00,DRY,3.10,7.55,8.0,776.00,1.3
2020-01-26,21:50:00,DRY,2.97,7.50,8.0,776.00,1.2
2020-01-26,21:55:00,DRY,2.70,7.75,8.0,776.00,1.6
2020-01-26,22:00:00,DRY,2.70,7.87,8.0,776.00,1.2
2020-01-26,22:05:00,DRY,2.40,7.85,8.0,776.50,1.5
2020-01-26,22:10:00,DRY,2.60,7.87,7.7,776.00,1.2
2020-01-26,22:15:00,DRY,3.70,8.00,7.0,776.00,1.1
2020-01-26,22:20:00,DRY,2.30,8.10,7.0,776.00,0.5
2020-01-26,22:25:00,DRY,2.80,8.20,7.0,776.00,0.6
2020-01-26,22:30:00,DRY,3.33,8.27,7.0,776.00,1.2
2020-01-26,22:35:00,DRY,3.25,8.20,7.0,776.00,0.9
2020-01-26,22:40:00,DRY,2.97,7.90,7.7,776.00,1.0
2020-01-26,22:45:00,DRY,3.25,7.75,7.5,776.00,1.7
2020-01-26,22:50:00,DRY,3.43,7.87,8.0,776.00,0.9
2020-01-26,22:55:00,DRY,3.55,7.85,7.5,776.00,1.2
2020-01-26,23:00:00,DRY,3.00,8.03,7.3,776.00,1.7
2020-01-26,23:05:00,DRY,3.15,8.10,7.5,776.00,0.8
2020-01-26,23:10:00,DRY,3.67,8.10,7.0,776.33,1.4
2020-01-26,23:15:00,DRY,2.60,8.10,7.0,776.50,0.9
2020-01-26,23:20:00,DRY,2.83,8.27,7.0,776.67,0.8
2020-01-26,23:25:00,DRY,2.70,8.30,7.0,776.50,0.6
2020-01-26,23:30:00,DRY,2.90,8.33,7.0,777.00,1.0
2020-01-26,23:35:00,DRY,2.85,8.30,7.0,777.00,1.6
2020-01-26,23:40:00,DRY,2.60,8.23,6.3,777.00,0.8
2020-01-26,23:45:00,DRY,2.65,8.15,6.0,777.00,1.1
2020-01-26,23:50:00,DRY,3.17,8.03,7.0,777.00,1.7
2020-01-26,23:55:00,DRY,2.80,8.00,7.0,776.50,1.0
2020-01-27,00:00:00,DRY,2.77,8.00,7.0,776.67,1.3
2020-01-27,00:05:00,DRY,2.40,7.95,7.0,777.00,0.9
2020-01-27,00:10:00,DRY,3.07,8.03,6.7,777.00,1.4
2020-01-27,00:15:00,DRY,3.25,8.20,7.0,776.50,1.2
2020-01-27,00:20:00,DRY,2.97,8.27,6.0,776.67,1.6
2020-01-27,00:25:00,DRY,2.85,8.30,6.0,776.00,1.5
2020-01-27,00:30:00,DRY,2.70,8.37,5.3,776.00,1.0
2020-01-27,00:35:00,DRY,2.25,8.45,5.0,776.00,2.1
2020-01-27,00:40:00,DRY,2.30,8.17,5.3,776.00,1.5
2020-01-27,00:45:00,DRY,2.40,8.25,5.0,776.00,1.5
2020-01-27,00:50:00,DRY,2.37,8.23,5.7,776.33,0.9
2020-01-27,00:55:00,DRY,2.15,8.25,6.0,776.00,0.8
2020-01-27,01:00:00,DRY,2.87,8.30,5.7,776.00,1.4
2020-01-27,01:05:00,DRY,2.80,8.30,5.0,776.00,1.2
2020-01-27,01:10:00,DRY,2.70,8.07,5.3,776.00,0.6
2020-01-27,01:15:00,DRY,3.05,8.35,5.0,776.00,1.3
2020-01-27,01:20:00,DRY,2.40,8.33,5.0,776.00,0.8
2020-01-27,01:25:00,DRY,2.50,8.20,5.0,776.00,1.5
2020-01-27,01:30:00,DRY,2.67,8.43,5.0,776.00,1.9
2020-01-27,01:35:00,DRY,2.70,8.40,5.5,776.00,2.1
2020-01-27,01:40:00,DRY,2.50,8.27,6.0,776.00,1.2
2020-01-27,01:45:00,DRY,2.50,8.45,7.0,776.00,1.4
2020-01-27,01:50:00,DRY,2.23,8.43,6.7,776.00,1.3
2020-01-27,01:55:00,DRY,1.70,8.40,6.5,776.00,0.6
2020-01-27,02:00:00,DRY,1.70,8.13,6.3,776.00,1.4
2020-01-27,02:05:00,DRY,1.15,8.00,6.5,776.00,0.4
2020-01-27,02:10:00,DRY,1.60,8.10,6.7,776.00,1.1
2020-01-27,02:15:00,DRY,1.90,8.25,7.0,776.00,0.8
2020-01-27,02:20:00,DRY,2.10,8.23,9.3,776.00,0.9
2020-01-27,02:25:00,DRY,1.75,8.35,11.0,776.00,0.3
2020-01-27,02:30:00,DRY,1.37,8.00,13.3,776.00,0.7
2020-01-27,02:35:00,DRY,1.55,7.80,15.0,776.00,0.6
2020-01-27,02:40:00,DRY,1.47,7.40,13.7,776.00,1.6
2020-01-27,02:45:00,DRY,2.10,7.50,10.0,776.00,2.4
2020-01-27,02:50:00,DRY,2.10,7.77,7.3,776.00,1.4
2020-01-27,02:55:00,DRY,1.45,8.00,9.5,776.00,1.1
2020-01-27,03:00:00,DRY,1.80,7.97,8.0,776.00,1.1
2020-01-27,03:05:00,DRY,2.25,8.10,9.5,776.00,0.9
2020-01-27,03:10:00,DRY,1.80,7.87,7.3,776.00,1.9
2020-01-27,03:15:00,DRY,1.90,7.65,8.0,776.00,0.3
2020-01-27,03:20:00,DRY,1.70,7.77,8.7,776.00,2.1
2020-01-27,03:25:00,DRY,1.80,7.75,8.0,776.00,1.5
2020-01-27,03:30:00,DRY,1.63,7.63,8.7,776.00,1.2
2020-01-27,03:35:00,DRY,1.60,7.60,9.0,776.00,0.6
2020-01-27,03:40:00,DRY,1.60,7.57,9.3,776.00,0.6
2020-01-27,03:45:00,DRY,1.50,7.60,9.5,776.00,1.0
2020-01-27,03:50:00,DRY,1.83,7.67,8.0,776.00,1.6
2020-01-27,03:55:00,DRY,1.95,7.45,8.5,776.00,0.2
2020-01-27,04:00:00,DRY,1.77,7.33,9.7,776.00,2.1
2020-01-27,04:05:00,DRY,1.35,7.80,10.0,776.00,1.6
2020-01-27,04:10:00,DRY,1.80,7.60,9.3,776.00,1.2
2020-01-27,04:15:00,DRY,1.50,7.55,10.0,776.00,1.0
2020-01-27,04:20:00,DRY,1.77,7.73,11.7,776.00,1.4
2020-01-27,04:25:00,DRY,2.05,7.80,11.0,776.00,0.8
2020-01-27,04:30:00,DRY,1.73,7.73,11.7,776.00,0.9
2020-01-27,04:35:00,DRY,1.80,7.50,13.0,776.00,0.9
2020-01-27,04:40:00,DRY,1.77,7.67,13.0,776.00,1.2
2020-01-27,04:45:00,DRY,2.05,7.75,14.0,776.00,1.8
2020-01-27,04:50:00,DRY,1.87,7.57,12.0,776.00,1.0
2020-01-27,04:55:00,DRY,1.10,7.25,10.0,776.00,1.1
2020-01-27,05:00:00,DRY,1.07,6.97,9.3,776.00,1.1
2020-01-27,05:05:00,DRY,1.85,6.85,9.0,776.00,0.8
2020-01-27,05:10:00,DRY,1.97,7.37,9.3,776.00,2.3
2020-01-27,05:15:00,DRY,1.70,7.35,9.0,776.00,1.1
2020-01-27,05:20:00,DRY,2.17,7.37,9.0,776.00,1.3
2020-01-27,05:25:00,DRY,1.55,7.40,9.0,776.00,1.3
2020-01-27,05:30:00,DRY,1.97,7.37,9.0,776.00,1.2
2020-01-27,05:35:00,DRY,2.40,7.15,9.0,776.00,1.4
2020-01-27,05:40:00,DRY,1.83,7.03,9.0,775.33,1.1
2020-01-27,05:45:00,DRY,1.65,6.95,9.0,775.50,0.3
2020-01-27,05:50:00,DRY,2.10,7.07,9.3,775.67,1.5
2020-01-27,05:55:00,DRY,2.35,6.80,10.0,775.00,1.1
2020-01-27,06:00:00,DRY,2.10,6.80,10.0,775.33,1.7
2020-01-27,06:05:00,DRY,2.20,6.55,10.0,775.00,0.5
2020-01-27,06:10:00,DRY,1.60,6.43,10.0,776.00,1.5
2020-01-27,06:15:00,DRY,1.45,6.30,10.0,775.50,2.1
2020-01-27,06:20:00,DRY,1.37,6.20,10.3,775.67,1.6
2020-01-27,06:25:00,DRY,1.80,5.95,11.0,776.00,0.8
2020-01-27,06:30:00,DRY,2.07,5.90,11.0,775.67,0.4
2020-01-27,06:35:00,DRY,1.80,5.85,11.0,776.00,2.0
2020-01-27,06:40:00,DRY,2.53,5.77,11.0,776.00,1.1
2020-01-27,06:45:00,DRY,2.70,5.70,11.0,776.00,1.5
2020-01-27,06:50:00,DRY,2.75,5.70,11.0,776.00,0.8
2020-01-27,06:55:00,DRY,2.80,5.75,11.0,776.00,1.1
2020-01-27,07:00:00,DRY,3.13,5.97,11.3,776.00,0.9
2020-01-27,07:05:00,DRY,2.80,5.85,12.0,776.00,0.9
2020-01-27,07:10:00,DRY,2.93,5.73,11.3,776.00,1.5
2020-01-27,07:15:00,DRY,3.70,6.00,11.0,776.00,1.9
2020-01-27,07:20:00,DRY,3.83,6.17,11.0,776.00,1.4
2020-01-27,07:25:00,DRY,3.40,6.20,10.0,776.00,1.4
2020-01-27,07:30:00,DRY,3.13,6.13,11.0,776.00,1.2
2020-01-27,07:35:00,DRY,3.40,6.20,11.0,776.00,0.8
2020-01-27,07:40:00,DRY,2.27,6.33,10.7,776.00,1.2
2020-01-27,07:45:00,DRY,2.00,6.45,10.0,776.00,1.2
2020-01-27,07:50:00,DRY,2.93,6.60,10.0,776.00,2.1
2020-01-27,07:55:00,DRY,2.30,6.60,10.0,776.00,4.3
2020-01-27,08:00:00,DRY,2.60,6.63,10.0,776.00,4.7
2020-01-27,08:05:00,DRY,2.20,6.65,10.0,776.00,6.8
2020-01-27,08:10:00,DRY,2.07,6.67,10.0,776.00,7.9
2020-01-27,08:15:00,DRY,2.00,7.10,11.5,776.00,10.6
2020-01-27,08:20:00,DRY,2.03,7.33,13.0,776.00,14.6
2020-01-27,08:25:00,DRY,2.85,7.50,13.5,776.00,17.4
2020-01-27,08:30:00,DRY,2.03,7.87,13.7,776.00,21.3
2020-01-27,08:35:00,DRY,2.95,7.75,13.5,776.00,26.1
2020-01-27,08:40:00,DRY,1.70,8.10,14.7,776.00,79.9
2020-01-27,08:45:00,DRY,2.15,8.45,13.5,776.00,99.2
2020-01-27,08:50:00,DRY,2.57,8.27,12.3,776.00,132.1
2020-01-27,08:55:00,DRY,3.05,8.30,12.5,776.00,181.5
2020-01-27,09:00:00,DRY,2.20,8.50,11.7,776.00,228.6
2020-01-27,09:05:00,DRY,2.35,8.80,12.5,776.00,303.7
2020-01-27,09:10:00,DRY,1.53,9.13,12.7,776.00,332.8
2020-01-27,09:15:00,DRY,1.45,9.35,13.0,776.00,345.9
2020-01-27,09:20:00,DRY,1.07,9.23,12.7,776.00,179.9
2020-01-27,09:25:00,DRY,1.60,9.00,12.5,776.00,222.7
2020-01-27,09:30:00,DRY,1.77,8.93,12.0,776.00,164.0
2020-01-27,09:35:00,DRY,2.20,8.60,12.0,776.00,153.4
2020-01-27,09:40:00,DRY,3.23,8.53,10.3,776.00,200.2
2020-01-27,09:45:00,DRY,2.15,8.65,10.5,776.00,274.1
2020-01-27,09:50:00,DRY,1.93,8.70,11.0,776.67,239.7
2020-01-27,09:55:00,DRY,2.40,8.50,10.5,777.00,272.8
2020-01-27,10:00:00,DRY,2.10,8.77,12.0,777.00,325.5
2020-01-27,10:05:00,DRY,1.70,9.15,12.0,777.00,329.0
2020-01-27,10:10:00,DRY,2.80,9.57,14.0,777.00,420.8
2020-01-27,10:15:00,DRY,3.45,9.70,13.0,777.00,454.6
2020-01-27,10:20:00,DRY,2.70,9.60,12.0,777.00,506.8
2020-01-27,10:25:00,DRY,2.20,9.75,12.5,777.00,574.2
2020-01-27,10:30:00,DRY,2.23,9.87,11.3,777.00,574.6
2020-01-27,10:35:00,DRY,2.05,9.50,12.0,777.00,564.7
2020-01-27,10:40:00,DRY,1.63,9.77,11.3,777.00,566.0
2020-01-27,10:45:00,DRY,2.50,9.85,11.5,777.00,624.7
2020-01-27,10:50:00,DRY,1.77,10.33,12.3,777.00,671.6
2020-01-27,10:55:00,DRY,2.10,10.30,14.5,777.00,626.4
2020-01-27,11:00:00,DRY,2.53,10.23,11.7,777.00,543.7
2020-01-27,11:05:00,DRY,1.85,9.90,11.5,777.00,576.4
2020-01-27,11:10:00,DRY,2.47,10.17,11.3,777.00,577.9
2020-01-27,11:15:00,DRY,2.10,10.25,12.0,777.00,588.6
2020-01-27,11:20:00,DRY,2.63,9.80,12.3,777.00,478.5
2020-01-27,11:25:00,DRY,2.55,9.85,12.0,777.00,537.9
2020-01-27,11:30:00,DRY,1.37,10.23,12.3,777.00,650.4
2020-01-27,11:35:00,DRY,1.55,10.10,11.5,777.00,530.0
2020-01-27,11:40:00,DRY,2.23,9.93,12.3,776.33,552.6
2020-01-27,11:45:00,DRY,2.80,10.10,12.5,776.00,561.2
2020-01-27,11:50:00,DRY,3.17,10.30,13.0,776.67,619.4
2020-01-27,11:55:00,DRY,1.90,10.25,13.5,776.00,578.2
2020-01-27,12:00:00,DRY,2.80,10.10,12.0,776.00,514.9
2020-01-27,12:05:00,DRY,2.15,9.95,11.0,776.00,422.4
2020-01-27,12:10:00,DRY,2.70,9.63,12.0,776.00,405.0
2020-01-27,12:15:00,DRY,1.95,9.65,12.5,776.00,459.9
2020-01-27,12:20:00,DRY,2.73,9.67,12.3,776.00,447.8
2020-01-27,12:25:00,DRY,3.30,9.80,14.0,776.00,589.5
2020-01-27,12:30:00,DRY,2.37,10.00,15.0,776.00,702.6
2020-01-27,12:35:00,DRY,3.75,10.30,14.5,776.00,745.3
2020-01-27,12:40:00,DRY,1.53,10.43,13.7,776.00,820.2
2020-01-27,12:45:00,DRY,2.50,10.70,13.0,776.00,849.0
2020-01-27,12:50:00,DRY,1.40,11.10,14.0,776.00,890.8
2020-01-27,12:55:00,DRY,1.45,11.10,14.0,776.00,874.3
2020-01-27,13:00:00,DRY,1.77,11.07,14.3,776.00,708.0
2020-01-27,13:05:00,DRY,2.40,10.80,14.0,776.00,542.2
2020-01-27,13:10:00,DRY,1.57,10.40,14.7,776.00,739.5
2020-01-27,13:15:00,DRY,3.00,10.55,14.0,776.00,922.8
2020-01-27,13:20:00,DRY,3.07,10.63,15.0,776.00,916.6
2020-01-27,13:25:00,DRY,2.45,10.60,14.5,776.00,898.6
2020-01-27,13:30:00,DRY,1.00,10.70,17.0,776.00,914.2
2020-01-27,13:35:00,DRY,1.10,10.50,15.0,776.00,882.5
2020-01-27,13:40:00,DRY,1.00,11.17,18.0,776.00,881.7
2020-01-27,13:45:00,DRY,2.75,11.35,18.0,776.00,894.4
2020-01-27,13:50:00,DRY,1.30,11.07,18.7,775.33,889.2
2020-01-27,13:55:00,DRY,1.70,11.20,21.0,776.00,844.8
2020-01-27,14:00:00,DRY,1.87,11.00,19.3,775.33,844.6
2020-01-27,14:05:00,DRY,1.25,11.75,21.5,775.50,830.4
2020-01-27,14:10:00,DRY,1.43,11.43,21.3,775.00,823.1
2020-01-27,14:15:00,DRY,1.65,10.80,22.0,775.00,815.2
2020-01-27,14:20:00,DRY,1.63,11.07,23.7,775.00,807.5
2020-01-27,14:25:00,DRY,1.30,11.40,22.0,775.00,801.5
2020-01-27,14:30:00,DRY,1.57,11.43,24.7,775.00,794.1
2020-01-27,14:35:00,DRY,2.20,11.45,27.5,775.00,791.9
2020-01-27,14:40:00,DRY,1.90,11.07,23.7,775.00,793.6
2020-01-27,14:45:00,DRY,2.10,10.95,23.5,775.00,800.0
2020-01-27,14:50:00,DRY,1.47,10.90,23.0,775.00,658.0
2020-01-27,14:55:00,DRY,1.90,10.90,22.5,775.00,760.9
2020-01-27,15:00:00,DRY,1.80,11.00,21.7,775.00,758.1
2020-01-27,15:05:00,DRY,1.90,11.05,22.0,775.00,747.3
2020-01-27,15:10:00,DRY,1.50,10.97,22.7,775.00,726.8
2020-01-27,15:15:00,DRY,0.75,11.20,22.5,775.00,714.2
2020-01-27,15:20:00,DRY,1.10,11.10,22.0,775.00,701.0
2020-01-27,15:25:00,DRY,1.80,11.00,24.0,775.00,688.2
2020-01-27,15:30:00,DRY,1.93,10.73,21.0,775.00,675.5
2020-01-27,15:35:00,DRY,1.15,10.95,18.5,775.00,663.2
2020-01-27,15:40:00,DRY,1.57,11.30,17.7,775.00,650.3
2020-01-27,15:45:00,DRY,0.80,11.55,16.0,775.00,636.3
2020-01-27,15:50:00,DRY,1.03,11.40,15.3,775.00,621.6
2020-01-27,15:55:00,DRY,2.25,11.40,14.5,775.00,607.1
2020-01-27,16:00:00,DRY,1.43,10.47,17.0,775.00,591.0
2020-01-27,16:05:00,DRY,0.65,10.30,17.5,775.00,576.0
2020-01-27,16:10:00,DRY,1.70,10.70,18.0,775.00,561.0
2020-01-27,16:15:00,DRY,1.35,10.75,18.5,775.00,545.5
2020-01-27,16:20:00,DRY,1.07,10.90,18.3,775.00,529.1
2020-01-27,16:25:00,DRY,1.40,10.85,18.5,775.00,512.4
2020-01-27,16:30:00,DRY,1.27,10.63,17.7,775.00,495.1
2020-01-27,16:35:00,DRY,0.20,10.80,15.0,775.00,473.0
2020-01-27,16:40:00,DRY,1.17,11.27,15.0,775.00,459.3
2020-01-27,16:45:00,DRY,1.35,11.20,15.5,775.00,440.7
2020-01-27,16:50:00,DRY,0.83,11.50,15.7,775.00,422.6
2020-01-27,16:55:00,DRY,1.60,11.20,17.0,775.00,403.0
2020-01-27,17:00:00,DRY,0.70,10.73,21.0,775.00,384.3
2020-01-27,17:05:00,DRY,0.25,10.85,16.0,775.00,365.4
2020-01-27,17:10:00,DRY,1.17,11.10,17.0,775.00,345.1
2020-01-27,17:15:00,DRY,1.90,11.25,16.5,775.00,326.4
2020-01-27,17:20:00,DRY,0.87,11.20,16.0,775.00,305.2
2020-01-27,17:25:00,DRY,1.20,10.60,17.0,775.00,286.3
2020-01-27,17:30:00,DRY,1.13,10.47,17.3,775.00,266.0
2020-01-27,17:35:00,DRY,1.75,10.50,15.5,775.00,245.6
2020-01-27,17:40:00,DRY,1.57,10.40,16.7,775.00,227.0
2020-01-27,17:45:00,DRY,0.70,10.10,16.5,775.00,207.6
2020-01-27,17:50:00,DRY,1.33,9.97,17.3,775.00,188.7
2020-01-27,17:55:00,DRY,1.85,10.10,16.0,775.00,170.0
2020-01-27,18:00:00,DRY,1.47,10.03,14.7,775.00,151.8
2020-01-27,18:05:00,DRY,2.00,9.75,13.5,775.00,130.7
2020-01-27,18:10:00,DRY,2.67,9.63,13.0,775.00,105.8
2020-01-27,18:15:00,DRY,3.05,9.60,13.0,775.00,82.6
2020-01-27,18:20:00,DRY,2.73,9.43,13.7,775.00,63.1
2020-01-27,18:25:00,DRY,2.95,9.40,14.0,776.00,44.5
2020-01-27,18:30:00,DRY,3.30,9.27,14.0,775.67,30.2
2020-01-27,18:35:00,DRY,2.80,9.10,13.5,776.00,18.8
2020-01-27,18:40:00,DRY,3.30,9.10,12.3,776.00,15.0
2020-01-27,18:45:00,DRY,2.65,9.20,12.0,776.00,11.2
2020-01-27,18:50:00,DRY,2.13,9.07,12.0,776.00,6.4
2020-01-27,18:55:00,DRY,1.95,9.00,11.5,776.00,3.4
2020-01-27,19:00:00,DRY,1.50,8.97,12.0,776.00,2.0
2020-01-27,19:05:00,DRY,1.45,8.80,13.0,776.00,1.0
2020-01-27,19:10:00,DRY,1.90,8.70,12.0,776.00,1.9
2020-01-27,19:15:00,DRY,1.45,8.70,12.0,776.00,0.6
2020-01-27,19:20:00,DRY,1.10,8.57,11.7,776.00,1.5
2020-01-27,19:25:00,DRY,1.10,8.20,13.5,776.00,0.3
2020-01-27,19:30:00,DRY,1.07,8.23,12.3,776.00,0.9
2020-01-27,19:35:00,DRY,1.25,8.40,12.0,776.00,2.0
2020-01-27,19:40:00,DRY,0.53,8.23,12.0,776.00,0.9
2020-01-27,19:45:00,DRY,0.45,8.20,11.5,776.00,1.6
2020-01-27,19:50:00,DRY,0.27,8.40,11.0,776.00,1.3
2020-01-27,19:55:00,DRY,0.25,8.10,12.5,776.00,1.7
2020-01-27,20:00:00,DRY,0.83,7.90,14.3,776.00,1.6
2020-01-27,20:05:00,DRY,1.15,8.15,14.5,776.00,1.2
2020-01-27,20:10:00,DRY,0.70,8.20,14.7,776.00,0.7
2020-01-27,20:15:00,DRY,0.25,8.20,14.0,776.00,1.2
2020-01-27,20:20:00,DRY,0.30,8.23,13.3,776.00,1.1
2020-01-27,20:25:00,DRY,0.50,8.15,14.0,776.00,1.2
2020-01-27,20:30:00,DRY,0.53,7.90,14.0,776.00,1.0
2020-01-27,20:35:00,DRY,0.35,7.85,13.0,776.00,1.0
2020-01-27,20:40:00,DRY,0.17,7.43,13.0,776.33,1.1
2020-01-27,20:45:00,DRY,0.35,7.40,13.0,777.00,1.2
2020-01-27,20:50:00,DRY,0.17,7.30,12.3,776.67,0.7
2020-01-27,20:55:00,DRY,0.40,7.25,13.0,777.00,1.2
2020-01-27,21:00:00,DRY,0.37,7.20,13.0,777.00,1.1
2020-01-27,21:05:00,DRY,0.30,7.15,13.0,777.00,1.4
2020-01-27,21:10:00,DRY,0.53,7.50,12.3,777.00,1.0
2020-01-27,21:15:00,DRY,1.00,7.85,12.0,777.00,0.3
2020-01-27,21:20:00,DRY,0.60,7.97,12.0,777.00,1.2